Regional Weather Roundup
Issued by NWS

Home | Current Version | Previous Version | Text Only | Print | Product List | Glossary On
Versions: 1 2 3 4 5 6 7 8 9 10 11 12 13 14 15 16 17 18 19 20 21 22 23 24 25 26 27 28 29 30 31 32 33 34 35 36 37 38 39 40 41 42 43 44 45 46 47 48 49 50
000
ASUS43 KMKX 130921
RWRWI

WISCONSIN REGIONAL WEATHER ROUNDUP
NATIONAL WEATHER SERVICE MILWAUKEE/SULLIVAN WI
400 AM CDT SUN JUL 13 2014

NOTE: "FAIR" INDICATES FEW OR NO CLOUDS BELOW 12,000 FEET WITH NO
SIGNIFICANT WEATHER AND/OR OBSTRUCTIONS TO VISIBILITY.

WIZ001-002-006>008-014>016-023>028-131000-
NORTHWEST WISCONSIN

CITY           SKY/WX    TMP DP  RH WIND       PRES   REMARKS
SUPERIOR ARPT  CLEAR     56  53  88 NW13      29.87S
ASHLAND        PTCLDY    58  52  80 W8        29.85R
HAYWARD        CLOUDY    61  55  81 VRB3      29.88R
SIREN          MOCLDY    58  55  89 NW3       29.90R
RICE LAKE      PTCLDY    60  58  93 W6        29.90R
LADYSMITH      PTCLDY    62  61  96 SW6       29.88F
EAU CLAIRE     PTCLDY    64  64 100 SW8       29.87R
MENOMONIE      MOSUNNY   64  63  96 W6        29.89R
NEW RICHMOND   MOCLDY    62  61  99 W3        29.90R
OSCEOLA        PTCLDY    62  61  95 CALM      29.93R
$$

WIZ003>005-009-010-017-018-131000-
NORTH CENTRAL WISCONSIN

CITY           SKY/WX    TMP DP  RH WIND       PRES   REMARKS
WOODRUFF       CLOUDY    63  60  90 NW6       29.83S
RHINELANDER    CLOUDY    62  60  93 W12       29.85S
EAGLE RIVER    CLOUDY    62  61  97 W8        29.82S
LAND O LAKES   CLEAR     61  57  85 W3        29.82F
PHILLIPS       MOCLDY    60  59  97 CALM      29.85S
TOMAHAWK         N/A     60  58  96 W5        29.85R
MEDFORD        CLOUDY    62  61  98 W6        29.88R FOG
MERRILL        PTCLDY    61  61 100 W8        29.85S
$$

WIZ029-030-035-036-043>047-131000-
CENTRAL WISCONSIN

CITY           SKY/WX    TMP DP  RH WIND       PRES   REMARKS
WAUSAU         MOCLDY    63  61  93 W8        29.84F
MOSINEE        CLOUDY    61  61 100 W8        29.87F
MARSHFIELD     CLOUDY    63  62  97 W5        29.88S FOG
STEVENS POINT  CLOUDY    61  61  99 W6        29.88S FOG
WAUPACA        MOCLDY    65  63  93 W8        29.87R
WAUTOMA        MOCLDY    63  63 100 W6        29.89R
WISC RAPIDS    CLOUDY    63  62  97 W7        29.89S FOG
CAMP DOUGLAS   PTCLDY    61  61 100 W5        29.90S FOG
$$

WIZ011>013-019>022-031-037>040-048>050-131000-
NORTHEAST WISCONSIN

CITY           SKY/WX    TMP DP  RH WIND       PRES   REMARKS
ANTIGO         CLOUDY    61  60  98 W9        29.85S
STURGEON BAY   CLEAR     63  59  88 W7        29.81S
GREEN BAY      CLEAR     62  61  96 SW3       29.83S
MANITOWOC      CLEAR     65  62  90 W7        29.84S
APPLETON       CLEAR     61  59  94 W9        29.85S
CLINTONVILLE   CLOUDY    63  61  94 W10       29.84R
OSHKOSH        PTCLDY    63  62  97 W7        29.86S
$$

WIZ032>034-041-042-053>061-131000-
SOUTHWEST WISCONSIN

CITY           SKY/WX    TMP DP  RH WIND       PRES   REMARKS
LA CROSSE      CLEAR     64  63  96 S6        29.90F
SPARTA         CLOUDY    62  61  97 W3        29.91F FOG
VIROQUA        CLOUDY    63  63 100 W6        29.94S VSB 1/4
BOSCOBEL       CLOUDY    65  63  93 SW6       29.93S FOG
PRAIRIE DU CHI CLOUDY    67  64  91 W6        29.94R
PLATTEVILLE    CLOUDY    64  63  96 W8        29.94S VSB 1/2
$$

WIZ056-057-062-063-064-067-068-131000-
SOUTH CENTRAL WISCONSIN

CITY           SKY/WX    TMP DP  RH WIND       PRES   REMARKS
BARABOO/DELLS  CLEAR     59  58  95 CALM      29.90S FOG
LONE ROCK      CLOUDY    68  63  84 W8        29.92R
WATERTOWN      CLOUDY    63  63 100 W9        29.89S
MADISON        CLOUDY    65  62  90 W3        29.91R
MIDDLETON      CLOUDY    65  65 100 W7        29.92R
MONROE         MOCLDY    63  63 100 SW7       29.92S
JANESVILLE     CLEAR     64  63  94 W5        29.90R FOG
$$

WIZ051-052-058>065-066-070>072-131000-
SOUTHEAST WISCONSIN

CITY           SKY/WX    TMP DP  RH WIND       PRES   REMARKS
MILWAUKEE      PTCLDY    66  63  90 W7        29.86F
WAUKESHA       PTCLDY    61  59  94 W3        29.89F
MILWAUKEE/TIMM CLEAR     63  61  94 W5        29.87S
RACINE         CLEAR     65  63  93 W8        29.87S
BURLINGTON     CLEAR     63  62  98 W6        29.88R
KENOSHA        CLEAR     65  64  97 W6        29.87S
FOND DU LAC    CLOUDY    63  61  93 SW3       29.88R
SHEBOYGAN      CLEAR     64  61  90 W8        29.85R
WEST BEND      MOCLDY    63  59  88 W9        29.87R
JUNEAU         CLOUDY    63  49  61 W7        29.90S
$$

LSZ147-162-131000-
LAKE SUPERIOR

STATION/POSITION TIME  TEMP    WIND        PRES    WAVE
                       AIR SEA DIR/SP/G            HT/PER
                 (UTC) (F)     (DEG/KT/KT) (MB)    (FT/S)
W MID LAKE BUOY  0850   44 38  260/ 10/ 12 1008.4S   1
PORT WING        0840   58     280/ 11/ 15 1011.2S
SAXON HARBOR     0800           CALM  /  3 1009.8F
$$

LMZ867-665-643>646-131000-
LAKE MICHIGAN

STATION/POSITION TIME  TEMP    WIND        PRES    WAVE
                       AIR SEA DIR/SP/G            HT/PER
                 (UTC) (F)     (DEG/KT/KT) (MB)    (FT/S)
N MID LAKE BUOY  0850   60 58  240/ 12/ 12 1007.5R   1/ 4
NORTHPORT PIER   0800   65     280/  7/ 10 1008.1F
SISTER BAY       0755   66     320/ 13/ 14   N/A
KEWAUNEE LAKESHO 0900   59     260/  2/  2 1010.5R
SHEBOYGAN LAKESH 0900   65     240/  4/  5 1010.6R
PORT WASHINGTON  0800   65     260/  4/  6 1011.5
MILWAUKEE LAKESH 0900   66     290/  9/ 11   N/A
S MID LAKE BUOY  0850   65 64  300/ 14/ 17 1009.9R   1/ 4
KENOSHA   LAKESH 0900   67     290/  6/  9   N/A
$$

TC  - TEMPERATURE IN CELSIUS
VSB - VISIBILITY IN STATUTE MILES
WCI - WIND CHILL INDEX
HX  - HEAT INDEX




USA.gov is the U.S. government's official web portal to all federal, state and local government web resources and services.